TimeEST,TemperatureF,Dew PointF,Humidity,Sea Level PressureIn,VisibilityMPH,Wind Direction,Wind SpeedMPH,Gust SpeedMPH,PrecipitationIn,Events,Conditions,WindDirDegrees,DateUTC
12:00 AM,60.8,55.4,82,30.00,10.0,Calm,Calm,-,N/A,,Scattered Clouds,0,2007-01-01 05:00:00
12:20 AM,59.0,50.0,72,29.99,10.0,Calm,Calm,-,N/A,,Mostly Cloudy,0,2007-01-01 05:20:00
12:40 AM,57.2,50.0,77,29.99,10.0,Calm,Calm,-,N/A,,Mostly Cloudy,0,2007-01-01 05:40:00
1:00 AM,55.4,50.0,82,29.98,10.0,Calm,Calm,-,N/A,,Mostly Cloudy,0,2007-01-01 06:00:00
1:20 AM,53.6,50.0,88,29.98,10.0,Calm,Calm,-,N/A,,Overcast,0,2007-01-01 06:20:00
1:40 AM,53.6,50.0,88,29.98,10.0,Calm,Calm,-,N/A,,Overcast,0,2007-01-01 06:40:00
2:00 AM,53.6,50.0,88,29.98,10.0,Calm,Calm,-,N/A,,Overcast,0,2007-01-01 07:00:00
2:20 AM,53.6,50.0,88,29.97,10.0,Calm,Calm,-,N/A,,Overcast,0,2007-01-01 07:20:00
2:40 AM,53.6,50.0,88,29.97,10.0,Calm,Calm,-,N/A,,Mostly Cloudy,0,2007-01-01 07:40:00
3:00 AM,51.8,48.2,88,29.96,7.0,Calm,Calm,-,N/A,,Scattered Clouds,0,2007-01-01 08:00:00
3:20 AM,50.0,46.4,87,29.96,4.0,Calm,Calm,-,N/A,,Scattered Clouds,0,2007-01-01 08:20:00
3:40 AM,50.0,46.4,87,29.96,5.0,Calm,Calm,-,N/A,,Scattered Clouds,0,2007-01-01 08:40:00
4:20 AM,50.0,48.2,94,29.96,7.0,Calm,Calm,-,N/A,,Overcast,0,2007-01-01 09:20:00
4:40 AM,50.0,48.2,94,29.95,7.0,Calm,Calm,-,N/A,,Overcast,0,2007-01-01 09:40:00
5:20 AM,50.0,46.4,87,29.96,10.0,Calm,Calm,-,N/A,,Overcast,0,2007-01-01 10:20:00
6:00 AM,46.4,44.6,93,29.96,5.0,Calm,Calm,-,N/A,,Clear,0,2007-01-01 11:00:00
6:20 AM,44.6,42.8,93,29.97,1.2,Calm,Calm,-,N/A,,Mist,0,2007-01-01 11:20:00
6:40 AM,44.6,42.8,93,29.97,0.5,Calm,Calm,-,N/A,Fog,Fog,0,2007-01-01 11:40:00
7:00 AM,44.6,42.8,93,29.98,0.5,Calm,Calm,-,N/A,Fog,Fog,0,2007-01-01 12:00:00
7:20 AM,42.8,41.0,93,29.98,0.5,Calm,Calm,-,N/A,Fog,Fog,0,2007-01-01 12:20:00
7:40 AM,42.8,41.0,93,29.99,0.5,Calm,Calm,-,N/A,Fog,Fog,0,2007-01-01 12:40:00
8:00 AM,42.8,41.0,93,29.99,0.2,Calm,Calm,-,N/A,Fog,Fog,0,2007-01-01 13:00:00
8:20 AM,41.0,39.2,93,29.99,0.5,Calm,Calm,-,N/A,Fog,Fog,0,2007-01-01 13:20:00
8:40 AM,42.8,41.0,93,29.99,1.5,Calm,Calm,-,N/A,,Mist,0,2007-01-01 13:40:00
9:00 AM,44.6,42.8,93,29.99,1.5,Calm,Calm,-,N/A,,Mist,0,2007-01-01 14:00:00
9:20 AM,46.4,44.6,93,29.99,10.0,Calm,Calm,-,N/A,,Clear,0,2007-01-01 14:20:00
9:40 AM,50.0,48.2,94,29.99,10.0,ENE,3.5,-,N/A,,Clear,60,2007-01-01 14:40:00
10:00 AM,51.8,42.8,71,29.99,10.0,Calm,Calm,-,N/A,,Clear,0,2007-01-01 15:00:00
10:20 AM,53.6,42.8,67,29.99,10.0,Calm,Calm,-,N/A,,Clear,0,2007-01-01 15:20:00
10:40 AM,55.4,42.8,63,29.98,10.0,ESE,4.6,-,N/A,,Clear,120,2007-01-01 15:40:00
11:00 AM,55.4,41.0,58,29.98,10.0,Calm,Calm,-,N/A,,Clear,0,2007-01-01 16:00:00
11:20 AM,59.0,35.6,42,29.97,10.0,NNW,4.6,-,N/A,,Clear,340,2007-01-01 16:20:00
12:20 PM,59.0,32.0,36,29.94,10.0,North,11.5,17.3,N/A,,Clear,350,2007-01-01 17:20:00
12:40 PM,59.0,33.8,39,29.94,10.0,NNW,12.7,16.1,N/A,,Clear,330,2007-01-01 17:40:00
1:00 PM,59.0,30.2,34,29.94,10.0,West,12.7,23.0,N/A,,Clear,280,2007-01-01 18:00:00
1:20 PM,59.0,32.0,36,29.92,10.0,WNW,9.2,16.1,N/A,,Clear,300,2007-01-01 18:20:00
1:40 PM,60.8,32.0,34,29.92,10.0,WSW,15.0,19.6,N/A,,Clear,250,2007-01-01 18:40:00
2:20 PM,59.0,32.0,36,29.92,10.0,WSW,15.0,21.9,N/A,,Clear,250,2007-01-01 19:20:00
3:00 PM,57.2,35.6,44,29.93,10.0,NW,11.5,19.6,N/A,,Clear,320,2007-01-01 20:00:00
3:20 PM,53.6,37.4,54,29.95,10.0,NW,12.7,20.7,N/A,,Clear,320,2007-01-01 20:20:00
3:40 PM,51.8,37.4,58,29.98,10.0,North,18.4,25.3,N/A,,Clear,360,2007-01-01 20:40:00
4:00 PM,48.2,35.6,62,29.99,10.0,NNW,10.4,19.6,N/A,,Clear,340,2007-01-01 21:00:00
4:20 PM,46.4,35.6,66,30.01,10.0,North,15.0,20.7,N/A,,Scattered Clouds,360,2007-01-01 21:20:00
4:40 PM,46.4,33.8,62,30.02,10.0,NNW,10.4,18.4,N/A,,Mostly Cloudy,340,2007-01-01 21:40:00
5:00 PM,46.4,32.0,57,30.03,10.0,North,10.4,17.3,N/A,,Scattered Clouds,360,2007-01-01 22:00:00
5:20 PM,44.6,32.0,61,30.04,10.0,NNW,9.2,19.6,N/A,,Scattered Clouds,340,2007-01-01 22:20:00
5:40 PM,44.6,32.0,61,30.05,10.0,NW,4.6,-,N/A,,Mostly Cloudy,310,2007-01-01 22:40:00
6:00 PM,44.6,32.0,61,30.07,10.0,WNW,8.1,19.6,N/A,,Mostly Cloudy,300,2007-01-01 23:00:00
6:20 PM,44.6,32.0,61,30.07,10.0,NW,6.9,-,N/A,,Overcast,320,2007-01-01 23:20:00
6:39 PM,44.6,32.0,61,30.08,10.0,WNW,6.9,-,N/A,,Mostly Cloudy,300,2007-01-01 23:39:00
7:00 PM,42.8,32.0,66,30.09,10.0,NW,10.4,19.6,N/A,,Overcast,310,2007-01-02 00:00:00
7:20 PM,42.8,32.0,66,30.10,10.0,NW,13.8,23.0,N/A,,Overcast,310,2007-01-02 00:20:00
7:40 PM,42.8,32.0,66,30.11,10.0,NW,16.1,21.9,N/A,,Overcast,310,2007-01-02 00:40:00
8:00 PM,41.0,32.0,70,30.11,10.0,NW,13.8,18.4,N/A,,Overcast,310,2007-01-02 01:00:00
8:20 PM,41.0,32.0,70,30.12,10.0,NW,13.8,23.0,N/A,,Overcast,320,2007-01-02 01:20:00
9:00 PM,39.2,32.0,75,30.15,10.0,WNW,15.0,20.7,N/A,,Overcast,290,2007-01-02 02:00:00
9:20 PM,37.4,32.0,81,30.15,10.0,NW,11.5,23.0,N/A,Rain,Light Rain,320,2007-01-02 02:20:00
9:40 PM,37.4,32.0,81,30.16,10.0,WNW,11.5,16.1,N/A,,Overcast,290,2007-01-02 02:40:00
10:00 PM,37.4,30.2,75,30.17,10.0,West,8.1,20.7,N/A,,Overcast,280,2007-01-02 03:00:00
10:20 PM,37.4,30.2,75,30.18,10.0,WNW,3.5,-,N/A,,Overcast,300,2007-01-02 03:20:00
10:40 PM,37.4,30.2,75,30.18,10.0,WNW,9.2,16.1,N/A,,Overcast,300,2007-01-02 03:40:00
11:00 PM,37.4,30.2,75,30.19,10.0,West,5.8,-,N/A,,Overcast,280,2007-01-02 04:00:00
11:20 PM,37.4,28.4,70,30.19,10.0,West,9.2,17.3,N/A,,Overcast,280,2007-01-02 04:20:00
11:40 PM,37.4,28.4,70,30.20,10.0,WNW,8.1,-,N/A,,Overcast,290,2007-01-02 04:40:00